Weather History for KUNV - September, 2013

Change the Weather History Date:

Thursday, September 12, 2013

  Actual Average Record
Temperature  
Mean Temperature 74 °F -  
Max Temperature 82 °F 74 °F 93 °F (1931)
Min Temperature 65 °F 52 °F 36 °F (1943)
Cooling Degree Days 9    
Growing Degree Days 24 (Base 50)    
Moisture  
Dew Point 66 °F    
Average Humidity 89    
Maximum Humidity 100    
Minimum Humidity 62    
Precipitation  
Precipitation 0.00 in - - ()
Sea Level Pressure  
Sea Level Pressure 29.91 in    
Wind  
Wind Speed 3 mph (West)    
Max Wind Speed 21 mph    
Max Gust Speed 30 mph    
Visibility 4 miles    
Events Fog , Rain , Thunderstorm    
Averages and records for this station are not official NWS values.
T = Trace of Precipitation, MM = Missing Value Source: NWS Daily Summary

Daily Weather History Graph

Daily Weather History Graph

Search for Another Location

Airport or City:

Trip Planner

Search our weather history database for the weather conditions in past years. The results will help you decide how hot, cold, wet, or windy it might be!

Date:

Astronomy

Sep. 12, 2013 Rise Set
Actual Time 6:49 AM EDT 7:25 PM EDT
Civil Twilight 6:21 AM EDT 7:52 PM EDT
Nautical Twilight 5:48 AM EDT 8:25 PM EDT
Astronomical Twilight 5:15 AM EDT 8:58 PM EDT
Moon 2:17 PM EDT (9/12) No Moon Set
Length of Visible Light 13h 31m
Length of Day
12h 35m
Waxing Crescent, 50% of the Moon is Illuminated
Sep 12
Waxing Crescent
Sep 12
First Quarter
Sep 19
Full
Sep 26
Last Quarter
Oct 4
New

Hourly Weather History & Observations

Time (EDT) Temp. Heat Index Dew Point Humidity Pressure Visibility Wind Dir Wind Speed Gust Speed Precip Events Conditions
12:15 AM 69.1 °F - 68.4 °F 98% 30.03 in 2.0 mi Calm Calm - N/A   Clear
12:35 AM 68.5 °F - 68.0 °F 98% 30.03 in 0.2 mi Calm Calm - N/A Fog Fog
12:55 AM 69.1 °F - 68.5 °F 98% 30.03 in 0.2 mi Calm Calm - N/A Fog Fog
1:15 AM 68.5 °F - 68.0 °F 98% 30.02 in 0.2 mi SSE 3.5 mph - N/A Fog Fog
1:35 AM 68.2 °F - 67.6 °F 98% 30.01 in 0.2 mi NW 3.5 mph - N/A Fog Fog
1:55 AM 68.2 °F - 67.6 °F 98% 30.01 in 1.0 mi Calm Calm - N/A   Overcast
2:15 AM 67.6 °F - 67.1 °F 98% 30.00 in 0.2 mi NE 3.5 mph - N/A Fog Fog
2:35 AM 67.5 °F - 67.1 °F 99% 30.00 in 0.2 mi Calm Calm - N/A Fog Fog
2:55 AM 67.6 °F - 67.1 °F 98% 29.99 in 0.2 mi Calm Calm - N/A Fog Fog
3:15 AM 68.0 °F - 67.3 °F 98% 29.99 in 0.2 mi Calm Calm - N/A Fog Fog
3:35 AM 67.8 °F - 67.3 °F 98% 29.99 in 0.2 mi Calm Calm - N/A Fog Fog
3:55 AM 67.8 °F - 67.1 °F 98% 29.98 in 0.2 mi Calm Calm - N/A Fog Fog
4:15 AM 67.1 °F - 66.6 °F 98% 29.98 in 0.2 mi Calm Calm - N/A Fog Fog
4:35 AM 67.1 °F - 66.4 °F 98% 29.98 in 0.2 mi Calm Calm - N/A Fog Fog
4:55 AM 67.1 °F - 66.4 °F 98% 29.98 in 0.2 mi Calm Calm - N/A Fog Fog
5:15 AM 66.9 °F - 66.4 °F 98% 29.98 in 0.2 mi Calm Calm - N/A Fog Fog
5:35 AM 66.6 °F - 66.2 °F 99% 29.97 in 0.2 mi Calm Calm - N/A Fog Fog
5:53 AM 66.2 °F - 66.2 °F 100% 29.97 in 0.2 mi Calm Calm - N/A Fog Fog
6:53 AM 66.2 °F - 66.2 °F 100% 29.97 in 1.0 mi Calm Calm - N/A   Overcast
7:03 AM 66.2 °F - 66.2 °F 100% 29.97 in 0.2 mi Calm Calm - N/A Fog Fog
7:25 AM 66.2 °F - 66.2 °F 100% 29.97 in 0.5 mi Calm Calm - N/A Fog Fog
7:53 AM 66.2 °F - 66.2 °F 100% 29.97 in 1.5 mi Calm Calm - N/A   Mostly Cloudy
8:53 AM 69.8 °F - 69.8 °F 100% 29.94 in 2.0 mi Calm Calm - N/A   Mostly Cloudy
9:53 AM 71.6 °F - 69.8 °F 94% 29.92 in 3.0 mi Calm Calm - N/A   Overcast
10:56 AM 75.2 °F - 71.6 °F 89% 29.92 in 5.0 mi SW 9.2 mph - N/A   Overcast
11:53 AM 78.8 °F - 71.6 °F 78% 29.91 in 5.0 mi WSW 8.1 mph - N/A   Haze
12:53 PM 82.4 °F 86.3 °F 69.8 °F 66% 29.87 in 6.0 mi West 10.4 mph - N/A   Haze
1:53 PM 82.4 °F 85.4 °F 68.0 °F 62% 29.86 in 6.0 mi WSW 10.4 mph - N/A   Haze
2:10 PM 82.4 °F 85.4 °F 68.0 °F 62% 29.86 in 5.0 mi West 20.7 mph 29.9 mph N/A Rain , Thunderstorm Thunderstorms and Rain
2:30 PM 68.0 °F - 62.6 °F 83% 29.86 in 8.0 mi WNW 13.8 mph - N/A Rain Light Rain
2:53 PM 71.6 °F - 64.4 °F 78% 29.83 in 10.0 mi West 15.0 mph 21.9 mph N/A   Mostly Cloudy
3:53 PM 73.4 °F - 64.4 °F 73% 29.82 in 10.0 mi West 10.4 mph - N/A   Mostly Cloudy
4:53 PM 71.6 °F - 64.4 °F 78% 29.80 in 10.0 mi West 10.4 mph 16.1 mph N/A   Mostly Cloudy
5:53 PM 71.6 °F - 64.4 °F 78% 29.80 in 10.0 mi WSW 11.5 mph - N/A   Overcast
7:53 PM 68.0 °F - 64.4 °F 88% 29.81 in 10.0 mi Calm Calm - N/A   Overcast
8:53 PM 68.0 °F - 64.4 °F 88% 29.81 in 10.0 mi Calm Calm - N/A   Overcast
9:15 PM 67.3 °F - 64.0 °F 89% 29.80 in 10.0 mi SW 4.6 mph - N/A   Scattered Clouds
9:35 PM 67.3 °F - 64.4 °F 90% 29.80 in 10.0 mi WSW 4.6 mph - N/A   Mostly Cloudy
9:55 PM 68.5 °F - 64.0 °F 85% 29.79 in 10.0 mi WSW 4.6 mph - N/A   Overcast
10:15 PM 68.5 °F - 63.7 °F 84% 29.80 in 10.0 mi WSW 5.8 mph - N/A   Overcast
10:35 PM 68.7 °F - 63.0 °F 82% 29.81 in 10.0 mi WNW 6.9 mph 19.6 mph N/A   Overcast
10:55 PM 68.2 °F - 59.0 °F 72% 29.81 in 10.0 mi NNW 5.8 mph - N/A   Mostly Cloudy
11:15 PM 67.3 °F - 59.4 °F 76% 29.81 in 10.0 mi NNW 8.1 mph - N/A   Mostly Cloudy
11:35 PM 66.2 °F - 57.6 °F 74% 29.80 in 10.0 mi NNW 6.9 mph - N/A   Mostly Cloudy
11:55 PM 65.5 °F - 55.8 °F 71% 29.80 in 10.0 mi North 4.6 mph - N/A   Scattered Clouds